Aberdeen / Amory, MS

12:38 AM CDT on April 24, 2018 (GMT -0500)
Aberdeen / Amory

Weather History for KM40 - March, 2014

Change the Weather History Date:

Sunday, March 23, 2014

  Actual Average (KCBM) Record (KCBM)
Temperature  
Mean Temperature 53 °F -  
Max Temperature 62 °F 66 °F 81 °F (2007)
Min Temperature 44 °F 45 °F 32 °F (2004)
Degree Days  
Heating Degree Days 12    
Growing Degree Days 3 (Base 50)    
Moisture  
Dew Point 38 °F    
Average Humidity 59    
Maximum Humidity 76    
Minimum Humidity 52    
Precipitation  
Precipitation 0.40 in - - ()
Sea Level Pressure  
Sea Level Pressure 30.17 in    
Wind  
Wind Speed 11 mph (North)    
Max Wind Speed 17 mph    
Max Gust Speed 24 mph    
Visibility 8 miles    
Events Rain    
Averages and records for this station are not official NWS values.
T = Trace of Precipitation, MM = Missing Value Source: NWS Daily Summary

Daily Weather History Graph

Daily Weather History Graph

Search for Another Location

Airport or City:

Astronomy

Mar. 23, 2014 Rise Set
Actual Time 6:53 AM CDT 7:07 PM CDT
Civil Twilight 6:28 AM CDT 7:32 PM CDT
Nautical Twilight 5:59 AM CDT 8:02 PM CDT
Astronomical Twilight 5:30 AM CDT 8:31 PM CDT
Moon 1:11 AM CDT (3/23) 11:47 AM CDT (3/23)
Length of Visible Light 13h 04m
Length of Day
12h 14m
Waning Gibbous, 54% of the Moon is Illuminated
Mar 23
Waning Gibbous
Mar 23
Last Quarter
Mar 30
New
Apr 7
First Quarter
Apr 15
Full

Hourly Weather History & Observations

Time (CDT) Temp. Windchill Dew Point Humidity Pressure Visibility Wind Dir Wind Speed Gust Speed Precip Events Conditions
12:15 AM 57.2 °F - 44.6 °F 63% 30.04 in 10.0 mi North 4.6 mph - N/A   Clear
12:35 AM 57.2 °F - 42.8 °F 59% 30.04 in 10.0 mi NNW 8.1 mph - N/A   Clear
12:55 AM 59.0 °F - 42.8 °F 55% 30.03 in 10.0 mi NNW 8.1 mph - N/A   Clear
1:15 AM 59.0 °F - 42.8 °F 55% 30.03 in 9.0 mi North 9.2 mph - N/A   Clear
1:35 AM 59.0 °F - 42.8 °F 55% 30.04 in 10.0 mi North 12.7 mph - N/A   Partly Cloudy
1:55 AM 59.0 °F - 42.8 °F 55% 30.04 in 10.0 mi North 12.7 mph - N/A   Partly Cloudy
2:15 AM 57.2 °F - 42.8 °F 59% 30.02 in 10.0 mi North 12.7 mph - N/A   Clear
2:35 AM 57.2 °F - 41.0 °F 55% 30.04 in 10.0 mi NNW 13.8 mph 20.7 mph N/A   Clear
2:55 AM 55.4 °F - 39.2 °F 54% 30.06 in 10.0 mi NNW 15.0 mph 19.6 mph N/A   Light Drizzle
3:15 AM 53.6 °F - 39.2 °F 58% 30.04 in 8.0 mi North 13.8 mph - N/A   Partly Cloudy
3:35 AM 53.6 °F - 39.2 °F 58% 30.07 in 10.0 mi NNW 11.5 mph - N/A   Mostly Cloudy
3:55 AM 51.8 °F - 39.2 °F 62% 30.06 in 10.0 mi North 12.7 mph - N/A   Overcast
4:15 AM 51.8 °F - 39.2 °F 62% 30.06 in 10.0 mi North 12.7 mph 21.9 mph N/A   Scattered Clouds
4:35 AM 48.2 °F - 37.4 °F 66% 30.07 in 5.0 mi East 8.1 mph - N/A Rain Light Rain
4:55 AM 48.2 °F - 39.2 °F 71% 30.12 in 1.2 mi NNW 13.8 mph - 0.17 in Rain Heavy Rain
5:15 AM 46.4 °F 40.7 °F 39.2 °F 76% 30.11 in 2.0 mi North 12.7 mph 19.6 mph 0.13 in Rain Heavy Rain
5:35 AM 46.4 °F 41.1 °F 39.2 °F 76% 30.13 in 3.0 mi North 11.5 mph 20.7 mph 0.19 in   Light Drizzle
5:55 AM 46.4 °F 40.7 °F 39.2 °F 76% 30.14 in 3.0 mi North 12.7 mph 18.4 mph 0.20 in Rain Light Rain
6:15 AM 46.4 °F 42.9 °F 37.4 °F 71% 30.11 in 2.5 mi ENE 6.9 mph - 0.01 in Rain Light Rain
6:35 AM 46.4 °F 41.9 °F 35.6 °F 66% 30.12 in 5.0 mi North 9.2 mph - 0.01 in   Haze
6:55 AM 46.4 °F 41.5 °F 35.6 °F 66% 30.14 in 6.0 mi North 10.4 mph - 0.01 in   Haze
7:15 AM 46.4 °F 41.1 °F 33.8 °F 62% 30.15 in 4.0 mi North 11.5 mph - N/A Rain Light Rain
7:35 AM 46.4 °F 41.5 °F 33.8 °F 62% 30.16 in 3.0 mi North 10.4 mph 16.1 mph 0.01 in Rain Light Rain
7:55 AM 46.4 °F 41.1 °F 35.6 °F 66% 30.17 in 3.0 mi North 11.5 mph - 0.02 in   Light Drizzle
8:15 AM 46.4 °F 41.5 °F 35.6 °F 66% 30.18 in 4.0 mi North 10.4 mph - N/A   Haze
8:35 AM 46.4 °F 41.5 °F 33.8 °F 62% 30.18 in 5.0 mi North 10.4 mph - N/A   Haze
8:55 AM 46.4 °F 40.4 °F 33.8 °F 62% 30.19 in 5.0 mi North 13.8 mph - N/A   Haze
9:15 AM 46.4 °F 40.4 °F 33.8 °F 62% 30.19 in 7.0 mi North 13.8 mph 20.7 mph N/A   Mostly Cloudy
9:35 AM 46.4 °F 40.1 °F 33.8 °F 62% 30.21 in 6.0 mi North 15.0 mph 20.7 mph N/A   Haze
9:55 AM 46.4 °F 41.5 °F 33.8 °F 62% 30.22 in 7.0 mi North 10.4 mph 20.7 mph N/A   Mostly Cloudy
10:15 AM 48.2 °F - 33.8 °F 58% 30.23 in 8.0 mi North 12.7 mph 20.7 mph N/A   Mostly Cloudy
10:35 AM 46.4 °F 40.7 °F 32.0 °F 57% 30.23 in 6.0 mi North 12.7 mph 20.7 mph N/A   Haze
10:55 AM 46.4 °F 40.1 °F 32.0 °F 57% 30.24 in 6.0 mi North 15.0 mph 19.6 mph N/A   Haze
11:15 AM 48.2 °F - 33.8 °F 58% 30.24 in 6.0 mi North 12.7 mph - N/A   Haze
11:35 AM 50.0 °F - 33.8 °F 54% 30.23 in 8.0 mi North 16.1 mph 21.9 mph N/A   Mostly Cloudy
11:55 AM 51.8 °F - 35.6 °F 54% 30.24 in 7.0 mi North 16.1 mph - N/A   Mostly Cloudy
12:15 PM 53.6 °F - 37.4 °F 54% 30.24 in 8.0 mi North 11.5 mph - N/A   Scattered Clouds
12:35 PM 55.4 °F - 39.2 °F 54% 30.24 in 8.0 mi North 12.7 mph - N/A   Scattered Clouds
12:55 PM 55.4 °F - 39.2 °F 54% 30.23 in 8.0 mi North 12.7 mph 18.4 mph N/A   Mostly Cloudy
1:15 PM 55.4 °F - 39.2 °F 54% 30.23 in 8.0 mi NNW 11.5 mph 20.7 mph N/A   Mostly Cloudy
1:35 PM 57.2 °F - 41.0 °F 55% 30.22 in 8.0 mi North 13.8 mph 19.6 mph N/A   Mostly Cloudy
1:55 PM 57.2 °F - 42.8 °F 59% 30.22 in 8.0 mi North 15.0 mph 24.2 mph N/A   Scattered Clouds
2:15 PM 59.0 °F - 42.8 °F 55% 30.21 in 10.0 mi NNE 15.0 mph 23.0 mph N/A   Partly Cloudy
2:35 PM 60.8 °F - 44.6 °F 55% 30.20 in 9.0 mi North 15.0 mph 20.7 mph N/A   Clear
2:55 PM 60.8 °F - 44.6 °F 55% 30.20 in 9.0 mi North 15.0 mph 19.6 mph N/A   Clear
3:15 PM 60.8 °F - 44.6 °F 55% 30.19 in 9.0 mi North 17.3 mph 23.0 mph N/A   Clear
3:35 PM 62.6 °F - 44.6 °F 52% 30.17 in 9.0 mi North 17.3 mph - N/A   Clear
3:55 PM 62.6 °F - 46.4 °F 55% 30.17 in 10.0 mi North 17.3 mph 23.0 mph N/A   Clear
4:15 PM 60.8 °F - 44.6 °F 55% 30.17 in 9.0 mi NNE 12.7 mph 20.7 mph N/A   Clear
4:35 PM 60.8 °F - 44.6 °F 55% 30.17 in 9.0 mi NNW 15.0 mph 20.7 mph N/A   Clear
4:55 PM 60.8 °F - 44.6 °F 55% 30.17 in 8.0 mi NNW 15.0 mph 23.0 mph N/A   Clear
5:15 PM 60.8 °F - 44.6 °F 55% 30.17 in 9.0 mi North 10.4 mph - N/A   Clear
5:35 PM 60.8 °F - 44.6 °F 55% 30.18 in 10.0 mi North 13.8 mph 20.7 mph N/A   Clear
5:55 PM 60.8 °F - 44.6 °F 55% 30.18 in 9.0 mi NNW 15.0 mph 18.4 mph N/A   Clear
6:15 PM 57.2 °F - 42.8 °F 59% 30.19 in 10.0 mi North 12.7 mph 20.7 mph N/A   Clear
6:35 PM 57.2 °F - 41.0 °F 55% 30.20 in 9.0 mi North 10.4 mph - N/A   Clear
6:55 PM 57.2 °F - 41.0 °F 55% 30.20 in 9.0 mi North 11.5 mph - N/A   Clear
7:15 PM 55.4 °F - 39.2 °F 54% 30.21 in 10.0 mi North 9.2 mph - N/A   Clear
7:35 PM 53.6 °F - 37.4 °F 54% 30.22 in 10.0 mi North 5.8 mph - N/A   Clear
7:55 PM 51.8 °F - 35.6 °F 54% 30.24 in 10.0 mi NNW 8.1 mph - N/A   Clear
8:15 PM 50.0 °F - 33.8 °F 54% 30.24 in 10.0 mi North 8.1 mph - N/A   Clear
8:35 PM 50.0 °F - 33.8 °F 54% 30.24 in 10.0 mi North 6.9 mph - N/A   Clear
8:55 PM 48.2 °F - 33.8 °F 58% 30.25 in 10.0 mi North 6.9 mph - N/A   Clear
9:15 PM 46.4 °F 43.5 °F 32.0 °F 57% 30.26 in 10.0 mi NNW 5.8 mph - N/A   Clear
9:35 PM 46.4 °F 42.4 °F 32.0 °F 57% 30.26 in 10.0 mi North 8.1 mph - N/A   Clear
9:55 PM 46.4 °F 42.9 °F 32.0 °F 57% 30.26 in 10.0 mi North 6.9 mph - N/A   Clear
10:15 PM 46.4 °F 42.4 °F 32.0 °F 57% 30.26 in 10.0 mi North 8.1 mph - N/A   Clear
10:35 PM 44.6 °F 40.2 °F 32.0 °F 61% 30.26 in 10.0 mi North 8.1 mph - N/A   Clear
10:55 PM 44.6 °F 40.2 °F 32.0 °F 61% 30.26 in 10.0 mi North 8.1 mph - N/A   Clear
11:15 PM 44.6 °F 40.2 °F 30.2 °F 57% 30.26 in 10.0 mi North 8.1 mph - N/A   Clear
11:35 PM 44.6 °F 40.2 °F 30.2 °F 57% 30.26 in 10.0 mi North 8.1 mph - N/A   Clear
11:55 PM 44.6 °F 39.7 °F 30.2 °F 57% 30.25 in 10.0 mi North 9.2 mph - N/A   Clear